This is the latest recevied weather packets stored in our database for station/object M0TUM-1. If no packets are shown the sender has not sent any weather packets the latest 1 day(s).
| Time | Temp. | Humidity | Pressure | Rain* | Wind** | Luminosity | Snow |
|---|---|---|---|---|---|---|---|
| 1778013458 | 9.44° C | 82% | 1013.4 hPa | 0 mm | 1.79 m/s, 16° | 0 W/m² | - |
| 1778013155 | 9.44° C | 82% | 1013.6 hPa | 0 mm | 0.45 m/s, 207° | 0 W/m² | - |
| 1778012851 | 9.44° C | 82% | 1013.4 hPa | 0 mm | 0.89 m/s, 331° | 0 W/m² | - |
| 1778012547 | 9.44° C | 81% | 1013.5 hPa | 0 mm | 0.45 m/s, 26° | 0 W/m² | - |
| 1778012244 | 9.44° C | 81% | 1013.5 hPa | 0 mm | 1.34 m/s, 6° | 0 W/m² | - |
| 1778011942 | 9.44° C | 81% | 1013.5 hPa | 0 mm | 2.24 m/s, 359° | 0 W/m² | - |
| 1778011640 | 10° C | 81% | 1013.2 hPa | 0 mm | 0.45 m/s, 73° | 0 W/m² | - |
| 1778011337 | 10° C | 80% | 1013.2 hPa | 0 mm | 1.79 m/s, 323° | 0 W/m² | - |
| 1778011032 | 10° C | 80% | 1013.1 hPa | 0 mm | 0.89 m/s, 8° | 0 W/m² | - |
| 1778010730 | 10° C | 80% | 1013.1 hPa | 0 mm | 0.45 m/s, 357° | 0 W/m² | - |
| 1778010427 | 10° C | 79% | 1013.2 hPa | 0 mm | 0.89 m/s, 8° | 0 W/m² | - |
| 1778010123 | 10° C | 79% | 1013.1 hPa | 0 mm | 1.79 m/s, 18° | 0 W/m² | - |
| 1778009819 | 10° C | 79% | 1013.1 hPa | 0 mm | 0.45 m/s, 13° | 0 W/m² | - |
| 1778009517 | 10° C | 78% | 1012.9 hPa | 0 mm | 1.79 m/s, 23° | 1 W/m² | - |
| 1778009215 | 10° C | 78% | 1013 hPa | 0 mm | 0.89 m/s, 115° | 3 W/m² | - |
| 1778008912 | 10.56° C | 77% | 1012.7 hPa | 0 mm | 1.79 m/s, 330° | 4 W/m² | - |
| 1778008610 | 10.56° C | 77% | 1012.8 hPa | 0 mm | 0.45 m/s, 1° | 7 W/m² | - |
| 1778008308 | 10.56° C | 77% | 1012.7 hPa | 0 mm | 2.24 m/s, 26° | 8 W/m² | - |
| 1778008004 | 10.56° C | 77% | 1012.9 hPa | 0 mm | 2.24 m/s, 14° | 10 W/m² | - |
| 1778007704 | 10.56° C | 77% | 1012.7 hPa | 0 mm | 0.89 m/s, 149° | 10 W/m² | - |
| 1778007401 | 10.56° C | 77% | 1013 hPa | 0 mm | 1.79 m/s, 14° | 12 W/m² | - |
| 1778007097 | 10.56° C | 77% | 1012.8 hPa | 0 mm | 1.79 m/s, 355° | 12 W/m² | - |
| 1778006794 | 10.56° C | 76% | 1012.8 hPa | 0 mm | 2.24 m/s, 37° | 15 W/m² | - |
| 1778006491 | 11.11° C | 76% | 1012.8 hPa | 0 mm | 2.24 m/s, 332° | 21 W/m² | - |
| 1778006188 | 11.11° C | 75% | 1012.8 hPa | 0 mm | 1.34 m/s, 41° | 25 W/m² | - |
* Rain latest hour (hover to see other rain measurements)
** Current wind speed in m/s (hover to see current wind gust speed)